Lapse_Rate
6.7 6.6 6.5 6.6 6.5 6.5 6.4 6.5 6.4 6.3 6.3 6.3 6.4 6.5 6.4 6.6 6.6 6.4 6.4 6.5 6.7 6.9 7.1 6.8 6.7 6.7 6.4 6.3 6.2 6.2 6.2 6.5 6.4 6.5 7.0 7.2 7.1 7.1 7.1 6.9 7.2 7.4 7.4 7.4 7.1 6.9 6.7
6.5 6.6 6.7 6.6 6.6 6.5 6.5 6.6 6.6 6.5 6.5 6.5 6.6 6.6 6.6 6.4 6.5 6.5 6.4 6.4 6.5 6.7 7.0 7.2 7.1 6.9 6.8 6.6 6.2 6.2 6.4 6.4 6.6 6.5 6.7 7.4 7.3 7.0 7.1 7.2 7.4 7.3 7.3 7.4 7.3 6.8 6.7
6.4 6.4 6.5 6.5 6.6 6.7 6.5 6.6 6.6 6.7 6.6 6.6 6.7 6.7 6.7 6.6 6.5 6.6 6.7 6.6 6.5 6.7 6.8 7.1 7.3 7.3 7.1 7.2 6.7 6.3 6.5 6.6 6.6 6.9 6.9 7.1 6.9 6.8 6.6 7.3 7.6 7.5 7.2 7.1 6.8 7.2 7.1
6.3 6.4 6.4 6.5 6.6 6.7 6.7 6.6 6.6 6.6 6.6 6.7 6.7 6.8 6.9 6.9 6.7 6.6 6.7 6.9 6.7 6.7 6.7 6.9 7.0 7.2 7.4 7.3 7.2 7.2 6.8 6.8 6.7 6.8 7.1 6.5 7.1 7.5 7.3 7.4 7.5 7.4 7.3 7.2 7.2 7.3 7.2
6.2 6.2 6.5 6.4 6.6 6.7 6.7 6.7 6.7 6.7 6.7 6.8 6.7 6.7 6.9 6.9 7.0 6.8 6.7 6.9 6.9 6.8 6.8 6.7 6.8 7.1 7.4 7.4 7.5 7.4 6.9 6.8 6.6 6.6 6.8 7.0 6.9 7.3 7.6 7.4 7.3 7.5 7.5 7.5 7.3 7.3 7.4
6.2 6.2 6.3 6.6 6.5 6.6 6.6 6.6 6.6 6.7 6.6 6.8 6.8 6.7 6.8 6.9 7.1 7.1 6.8 6.9 6.7 6.7 6.9 6.9 6.7 7.0 7.1 7.4 7.4 7.9 7.4 7.2 7.3 7.0 7.2 7.3 7.5 7.5 7.5 7.5 7.6 7.7 8.0 8.1 7.5 7.3 7.4
5.8 6.0 6.1 6.3 6.5 6.6 6.6 6.7 6.5 6.5 6.7 6.6 6.7 6.8 6.6 6.8 7.0 7.2 7.0 6.9 6.7 6.6 6.9 7.0 6.8 7.0 7.0 7.3 7.6 8.0 7.8 7.6 7.4 7.5 7.5 7.8 7.6 7.6 8.1 8.1 8.4 8.4 7.4 8.5 9.1 8.3 7.4
5.7 5.9 5.9 6.1 6.4 6.5 6.7 6.6 6.7 6.5 6.5 6.7 6.7 6.7 6.6 6.6 6.8 6.9 7.1 7.0 6.6 6.7 6.9 6.9 7.0 7.2 7.1 7.2 7.7 7.9 8.0 7.9 7.6 7.6 8.0 8.0 7.8 8.3 8.4 8.4 8.6 8.4 8.5 9.0 8.7 8.4 7.8
5.5 5.6 5.7 5.8 6.0 6.3 6.5 6.7 6.6 6.6 6.5 6.7 6.7 6.7 6.6 6.6 6.6 6.8 6.8 6.8 6.7 6.4 6.7 7.1 7.1 7.1 7.2 7.2 7.5 7.8 7.8 8.0 7.6 7.8 7.9 7.9 8.2 8.4 8.2 8.6 8.6 8.6 8.6 8.7 8.8 8.5 8.0
5.4 5.4 5.6 5.6 5.7 6.0 6.2 6.5 6.6 6.5 6.6 6.5 6.6 6.7 6.6 6.5 6.5 6.6 6.8 6.7 6.6 6.6 6.6 7.1 7.3 7.3 7.1 7.0 7.3 7.5 7.3 7.7 7.8 7.9 8.3 8.1 8.2 8.3 8.3 8.2 8.4 8.6 8.5 8.5 8.6 8.6 8.1
5.5 5.5 5.6 5.6 5.6 5.7 5.9 6.2 6.3 6.4 6.5 6.6 6.6 6.6 6.6 6.3 6.4 6.7 7.0 6.6 6.5 6.5 4.7 7.3 6.9 6.8 7.2 7.1 7.6 7.3 7.4 7.7 7.9 8.0 8.2 8.3 8.1 7.9 8.1 8.3 8.5 8.3 8.3 8.2 8.4 8.6 8.3
5.6 5.6 5.7 5.7 5.7 5.7 5.8 6.0 6.2 6.2 6.3 6.4 6.6 6.4 6.5 6.3 6.1 6.8 6.3 6.4 6.5 6.5 6.2 7.4 7.1 7.2 7.0 7.1 7.3 7.3 7.4 7.4 7.7 7.8 8.1 8.1 8.3 8.1 8.0 8.4 8.2 8.1 8.4 8.3 8.3 8.4 7.8
5.8 5.8 5.9 5.9 6.0 6.0 6.0 6.1 6.1 6.2 6.3 6.4 6.5 6.6 6.4 6.2 6.3 6.6 6.3 6.2 6.4 6.1 7.1 7.6 7.5 7.4 7.3 7.1 7.3 7.1 7.1 7.5 7.4 7.5 7.9 8.0 8.0 8.3 8.4 8.2 8.2 8.2 8.3 8.3 7.8 7.3 7.2
5.7 5.9 6.1 6.2 6.3 6.2 6.1 6.1 6.2 6.2 6.3 6.4 6.5 6.6 6.6 6.3 6.2 6.2 6.2 6.0 5.9 6.3 7.4 7.7 7.6 7.6 7.4 7.5 7.3 7.3 7.1 7.3 7.4 7.4 7.9 7.8 7.8 8.0 8.2 8.3 8.2 8.4 8.5 8.0 7.4 7.3 8.0
6.0 6.0 6.1 6.2 6.2 6.2 6.1 6.2 6.2 6.4 6.4 6.5 6.5 6.5 6.6 6.3 6.2 6.2 6.1 5.6 6.1 6.7 7.6 7.7 7.7 7.8 7.6 7.7 7.6 7.6 7.4 7.3 7.4 7.6 7.6 8.1 8.1 8.2 8.0 8.1 7.9 8.1 8.2 8.4 8.2 8.3 8.3
5.9 5.9 5.8 6.0 6.0 6.1 6.1 6.0 6.1 6.2 6.3 6.5 6.5 6.6 6.5 6.3 6.2 6.2 6.0 5.7 6.1 6.9 7.6 7.3 7.3 7.8 7.9 7.9 8.0 7.7 7.6 7.5 7.6 7.7 8.0 8.0 8.1 8.0 7.8 7.9 7.9 8.1 8.0 8.2 8.4 6.5 7.2
5.5 5.6 5.5 5.5 5.7 5.9 5.9 5.9 6.0 6.1 6.2 6.2 6.3 6.5 6.3 6.4 6.3 6.2 6.0 5.8 6.1 6.5 7.2 7.0 7.5 7.4 7.7 8.0 8.4 8.2 7.8 7.8 7.9 7.9 7.8 7.9 8.1 7.4 7.5 7.5 8.0 8.1 8.0 8.0 8.2 8.2 7.1
5.1 5.2 5.3 5.3 5.4 5.6 5.7 5.9 6.2 6.3 6.2 6.1 6.0 5.9 5.9 6.3 6.2 6.2 6.1 6.0 6.3 6.5 7.1 6.6 7.1 7.3 7.4 7.8 8.1 8.2 8.1 8.1 8.0 8.2 7.9 7.7 8.0 7.3 7.4 7.6 7.8 7.7 7.8 8.0 7.9 7.8 8.1
5.0 5.0 5.2 5.4 5.6 5.9 6.0 6.3 6.6 6.4 6.3 6.1 5.9 5.6 5.7 5.8 6.1 6.2 6.3 6.2 6.0 6.5 7.0 6.5 6.7 7.2 7.8 7.7 7.7 8.3 8.2 7.8 7.8 8.1 7.8 7.8 7.5 7.6 6.9 7.2 7.6 7.9 7.8 7.8 7.9 7.9 8.0
5.3 5.2 5.2 5.8 6.2 6.3 6.5 6.9 7.2 7.1 6.7 6.4 6.1 5.8 6.1 5.8 6.3 6.1 5.8 6.1 5.8 6.1 7.0 6.4 6.5 7.0 7.3 7.3 7.5 8.2 7.9 8.0 7.8 7.7 8.0 7.6 7.4 7.4 7.5 7.8 7.7 7.7 7.9 7.9 7.8 7.7 7.9
5.8 5.7 5.7 6.4 6.8 6.9 7.3 7.3 7.3 7.3 7.1 6.9 6.8 6.6 6.2 6.0 6.3 6.2 6.1 5.8 6.0 6.2 6.4 6.8 6.5 6.6 7.1 7.1 7.5 8.0 8.1 7.8 7.7 7.6 7.7 7.6 7.3 7.5 7.6 7.8 7.6 7.7 7.7 7.9 8.0 8.0 7.2
6.2 6.3 6.4 6.8 6.9 7.0 7.2 7.1 7.3 6.9 6.8 6.8 6.7 6.6 6.8 7.0 7.0 6.6 6.4 6.2 6.3 6.6 6.8 6.9 6.7 6.9 7.2 7.2 7.3 7.5 7.8 7.4 7.5 7.6 7.7 7.6 7.4 7.5 7.4 7.7 7.7 7.7 7.6 7.7 7.8 7.5 7.1
6.6 6.8 6.7 6.7 6.8 6.9 6.8 6.7 6.7 6.6 6.7 6.7 6.6 6.8 6.8 7.2 7.1 7.0 6.8 6.5 6.8 6.9 7.0 6.3 6.4 6.4 6.9 7.3 6.9 6.7 7.1 7.7 7.4 7.1 7.4 7.6 7.3 7.3 7.1 7.5 7.6 7.2 8.1 7.8 7.5 7.3 7.6
7.1 7.2 7.0 7.1 7.0 6.9 6.8 6.7 6.5 6.6 6.6 6.7 6.8 6.8 6.7 7.2 7.1 7.1 7.2 6.8 6.3 6.7 6.8 7.1 6.6 6.4 6.5 6.5 6.4 6.9 7.0 7.3 7.3 7.2 7.4 7.7 7.4 7.3 7.0 7.5 5.2 7.5 8.1 7.8 7.5 7.3 7.2
7.3 7.2 7.2 7.2 7.1 7.1 6.9 6.7 6.4 6.4 6.3 6.5 6.5 6.5 6.4 6.7 7.1 7.4 7.0 6.8 6.5 6.5 7.0 6.5 6.3 6.4 6.4 6.4 6.4 6.3 6.8 7.4 7.3 7.6 6.9 7.4 7.6 7.3 6.9 7.0 7.0 7.2 7.6 7.6 7.7 7.3 7.4
7.1 7.0 7.2 7.3 7.2 7.1 6.9 6.7 6.6 6.6 6.6 6.8 6.8 6.7 6.5 6.4 6.9 6.8 7.3 6.8 7.3 6.8 6.7 6.7 6.4 6.4 6.6 6.5 6.2 6.6 6.3 6.5 7.3 7.4 7.4 7.1 7.4 7.3 6.7 6.8 5.6 7.3 7.7 7.5 7.6 7.2 7.2
7.2 7.1 7.3 7.4 7.6 7.5 7.4 7.1 6.7 6.7 6.8 6.8 6.9 7.0 6.8 6.5 6.9 6.5 6.7 6.7 6.9 7.1 7.3 7.0 6.6 6.6 6.6 6.8 6.3 6.3 6.5 6.5 7.2 7.0 7.4 7.3 7.2 7.1 7.0 6.6 6.7 7.5 7.2 7.5 7.5 7.4 7.2
7.0 7.0 7.2 7.4 7.5 7.6 7.5 7.3 7.0 6.8 6.9 7.0 7.0 6.8 6.8 6.4 7.0 6.6 6.4 6.6 6.5 6.9 7.2 7.4 7.0 6.8 6.7 6.6 6.3 6.2 6.4 6.7 6.8 7.0 7.3 7.3 7.2 7.0 6.8 6.5 6.4 7.3 7.2 7.2 7.6 7.3 6.9
7.0 7.0 7.2 7.3 7.5 7.7 7.7 7.6 7.3 7.0 6.8 6.9 7.0 6.7 6.8 6.6 7.0 6.6 6.4 6.4 6.4 7.1 7.5 7.7 7.2 6.8 6.9 6.7 6.4 6.1 6.2 6.2 6.5 7.0 7.4 7.1 7.0 6.9 7.0 6.5 7.7 7.2 7.4 7.3 7.3 7.0 7.1
Wind_Speed
11 12 12 13 14 15 17 18 18 20 22 24 25 25 27 29 29 30 31 30 27 25 23 24 17 12 2 2 8 12 17 9 8 6 4 4 6 6 2 4 10 5 6 7 7 10 9
10 11 12 13 14 15 16 17 19 20 21 24 26 27 27 28 30 31 33 32 29 27 24 21 15 9 0 3 8 19 13 8 7 5 5 7 10 8 5 2 2 3 7 8 1 3 4
10 10 11 12 13 14 16 17 19 21 22 23 26 28 28 29 30 32 34 34 32 28 26 18 10 3 3 11 8 13 13 9 8 8 8 9 11 10 5 2 4 3 5 5 5 3 2
7 9 10 11 13 15 16 17 18 19 22 24 26 28 30 30 31 32 34 35 37 30 25 12 4 3 6 6 13 8 6 6 9 9 12 4 7 2 4 2 3 0 3 4 7 9 5
5 7 8 10 12 14 16 17 19 20 22 23 25 28 31 32 33 35 35 38 41 27 16 5 2 4 6 2 3 9 3 6 6 2 6 5 4 3 3 1 4 4 5 7 2 10 6
5 5 7 9 10 12 14 16 18 21 22 24 26 28 31 33 34 36 38 41 32 14 5 5 6 2 5 5 2 4 3 3 4 6 4 1 1 1 3 2 5 7 4 3 6 6 6
4 5 7 8 10 11 13 15 17 19 23 25 27 29 31 34 36 37 19 6 6 5 6 4 4 4 5 1 2 3 3 5 2 4 5 5 3 5 11 11 10 11 11 9 9 9 8
4 5 7 8 9 11 13 14 17 19 21 25 27 30 33 35 37 36 8 4 3 5 7 12 10 8 5 3 2 6 5 1 2 6 7 4 6 9 8 9 6 3 4 7 3 11 7
5 5 6 8 9 10 12 14 16 20 21 23 27 31 34 38 41 11 2 7 9 8 3 8 7 9 6 6 4 7 9 4 3 7 8 5 9 2 5 8 6 4 6 6 5 6 5
6 6 6 7 8 11 12 14 16 18 21 23 26 31 35 42 6 6 3 8 10 3 3 5 7 6 11 7 5 8 9 7 4 6 6 7 4 2 4 5 5 4 7 7 7 3 1
7 6 5 5 7 8 11 14 17 19 21 23 25 29 32 32 5 4 9 16 10 3 4 6 5 3 7 8 4 5 4 3 4 6 1 7 4 3 2 4 4 2 5 6 5 6 5
9 7 5 4 6 9 11 13 16 19 21 23 25 28 27 10 4 6 19 16 2 5 5 4 4 5 4 8 8 7 5 2 4 4 6 2 2 1 3 4 5 2 5 6 3 2 3
10 10 8 7 7 10 12 13 15 19 22 24 27 31 19 12 4 18 15 4 4 4 6 5 6 7 8 8 8 7 6 5 5 4 5 5 4 4 2 1 3 3 5 3 3 2 5
13 11 8 7 7 9 11 13 14 18 22 25 29 35 9 11 14 13 3 2 4 5 7 9 2 7 9 8 8 8 8 7 8 5 4 5 5 9 5 6 5 5 7 5 5 2 2
15 13 11 9 7 8 10 12 14 17 21 25 25 4 3 5 17 3 1 2 8 7 4 4 6 3 6 7 8 11 8 8 10 11 7 6 5 4 6 2 4 1 3 7 4 4 3
16 13 10 9 8 7 8 11 14 17 21 22 5 4 4 4 3 2 3 5 5 8 10 9 5 8 8 8 7 8 8 7 9 11 10 5 3 4 2 4 4 3 2 4 3 3 3
18 14 12 11 8 7 7 10 13 17 22 26 2 2 2 7 2 2 4 6 7 17 13 4 5 6 5 5 9 7 4 8 5 8 11 8 6 2 5 4 7 2 1 1 4 4 4
20 17 14 12 9 7 7 8 12 16 25 6 3 2 2 3 1 3 3 3 5 14 11 4 4 4 5 8 5 9 9 5 6 2 5 3 5 5 8 1 5 6 7 6 5 4 3
21 20 17 14 12 9 6 6 9 12 14 4 3 3 3 2 2 3 6 10 9 13 13 4 4 5 7 7 5 4 5 6 6 3 4 2 0 2 3 6 4 2 4 4 3 3 6
24 22 19 17 15 11 8 5 6 9 11 4 3 2 4 1 3 4 6 10 11 9 17 12 12 7 6 8 5 7 3 2 4 4 5 5 3 7 7 6 5 3 3 3 6 3 3
26 24 23 21 17 14 10 6 4 7 11 3 2 4 1 2 4 6 8 8 8 12 9 5 4 7 9 6 6 7 2 3 2 3 3 4 3 2 4 6 5 7 6 8 6 5 5
27 25 23 21 19 17 14 9 4 4 9 2 2 3 4 4 7 7 5 5 12 13 5 6 8 8 8 3 3 4 6 4 2 2 3 0 2 3 5 8 5 6 11 12 9 5 6
28 26 24 23 21 19 16 12 8 5 2 3 3 4 2 4 5 4 4 6 10 10 8 7 3 7 10 4 4 3 6 8 7 4 7 5 3 2 3 4 5 7 7 6 8 6 12
27 26 25 24 22 21 17 15 12 8 8 2 2 3 1 3 4 6 13 16 11 12 9 7 6 2 2 14 2 5 6 9 10 7 7 7 6 3 4 3 2 7 5 7 9 6 8
28 25 24 23 23 21 19 18 16 12 8 1 3 2 3 3 4 11 11 11 9 12 14 8 4 4 3 5 4 5 5 5 5 6 6 5 5 2 4 3 5 6 6 6 6 6 4
28 26 24 23 22 21 21 21 18 14 10 2 3 2 1 2 3 10 9 8 4 4 5 2 5 5 4 2 3 6 4 4 4 3 5 7 6 5 2 4 7 8 8 4 6 4 5
29 27 24 23 22 22 22 20 18 16 13 5 3 5 2 2 4 5 2 3 3 4 4 3 7 4 2 3 2 3 5 7 5 6 5 3 1 6 3 4 6 6 6 5 6 8 10
29 26 25 23 22 22 22 21 20 18 15 7 4 9 3 3 6 5 6 5 5 2 2 5 5 2 2 3 2 3 4 5 4 4 7 6 5 4 3 3 6 4 3 9 6 1 13
29 27 25 23 22 22 22 21 20 19 16 12 2 8 7 3 5 4 9 11 9 6 3 1 2 3 4 2 1 2 4 2 4 4 4 5 6 5 8 7 6 2 7 5 6 7 5
Wind_Direction
34 30 27 22 18 13 10 7 6 2 358 354 351 350 347 344 338 333 327 324 324 321 319 317 321 328 359 222 250 172 181 171 152 147 229 237 284 292 237 303 325 104 100 82 91 133 171
28 27 26 24 22 12 9 6 1 359 359 353 349 346 343 340 337 331 325 320 319 317 316 315 313 317 256 252 248 163 173 160 177 181 238 227 240 246 13 271 28 83 105 107 342 136 156
17 21 22 18 17 13 8 7 4 360 358 354 348 344 340 338 334 329 322 317 315 314 312 307 300 285 262 238 304 180 187 182 188 187 228 250 259 256 199 337 27 114 92 133 209 120 88
22 14 13 11 10 7 6 4 1 359 355 353 348 343 338 335 332 326 320 316 310 306 303 299 262 259 251 284 238 301 271 217 226 223 227 270 357 36 57 75 356 75 129 179 212 152 207
24 10 10 10 8 6 0 0 357 355 353 350 347 341 337 334 330 325 322 313 302 299 282 251 202 193 262 241 233 244 260 252 190 69 19 13 354 33 14 48 332 247 230 231 103 170 162
6 10 3 4 4 1 358 355 354 350 349 347 344 340 336 332 329 324 322 307 288 305 260 212 260 291 280 245 350 338 313 114 89 70 345 337 33 133 318 132 232 239 223 282 159 253 166
339 342 347 348 351 353 354 354 351 349 345 344 343 338 334 330 326 323 334 346 12 13 8 234 280 227 342 42 345 318 355 3 178 151 232 225 120 210 234 221 228 247 234 266 179 192 180
317 334 342 343 345 349 349 350 348 346 345 342 340 337 332 329 325 317 301 45 78 210 308 290 270 259 277 316 265 257 106 135 245 216 250 318 218 248 308 264 214 279 328 333 13 205 159
282 303 324 333 339 344 346 346 346 343 343 341 338 336 332 330 322 311 76 28 31 17 258 282 222 209 210 170 242 227 152 200 242 219 261 237 252 335 339 339 21 37 31 359 62 161 223
258 274 293 317 335 342 342 341 340 341 339 340 338 336 333 333 336 337 39 6 353 40 14 258 199 226 222 161 232 237 183 163 226 235 230 245 222 73 343 324 340 47 347 0 9 55 235
240 265 269 301 324 338 340 343 340 339 339 338 336 335 334 329 284 330 342 347 331 36 23 262 178 182 160 156 193 187 133 90 221 237 209 256 40 20 313 294 27 136 6 353 1 19 30
235 250 257 293 319 328 335 340 341 336 336 334 333 328 338 336 308 308 329 315 15 44 257 279 130 184 155 188 255 166 121 46 196 276 292 266 146 44 21 73 61 102 35 341 346 58 1
231 246 260 280 302 316 323 330 336 335 334 333 329 322 323 295 246 336 322 330 49 144 291 213 185 167 202 206 225 145 154 183 172 140 255 272 188 149 119 181 115 85 71 358 353 16 218
222 230 247 269 296 311 319 326 330 335 334 334 331 318 288 240 264 307 331 63 178 235 271 319 90 193 191 215 202 236 168 190 219 228 171 186 280 171 177 191 179 178 152 155 195 191 296
220 228 235 252 277 297 312 323 328 333 333 338 333 323 269 254 239 230 293 165 202 214 237 299 322 275 211 230 202 196 211 197 194 193 184 187 232 23 117 169 153 286 162 201 122 8 82
213 218 229 235 256 285 304 321 332 335 333 341 333 311 270 112 27 172 204 235 228 245 299 314 293 190 208 216 211 163 205 208 229 195 183 241 124 161 102 46 44 98 251 63 3 131 203
209 212 218 224 240 267 294 319 333 340 335 326 319 295 241 107 116 197 215 241 244 276 295 348 335 337 323 284 188 175 214 239 224 231 187 189 117 355 100 187 186 99 314 96 125 136 164
207 206 208 220 228 248 280 316 339 348 342 360 285 298 211 111 199 215 204 255 271 282 292 291 299 304 280 336 294 173 212 227 179 133 144 134 138 149 201 122 149 168 198 145 127 247 213
203 205 206 211 217 228 258 305 339 350 6 335 279 257 265 127 222 270 282 269 247 265 276 273 285 249 330 309 332 323 98 327 73 86 106 45 264 60 44 3 358 188 192 119 131 116 204
200 203 205 206 210 217 230 270 322 337 344 351 285 347 321 223 273 300 298 252 260 243 256 276 268 316 326 291 278 288 58 48 5 92 97 84 201 156 182 201 151 198 223 144 135 128 225
200 201 202 204 207 210 219 238 280 324 333 338 260 255 204 276 294 258 281 296 277 260 219 233 275 257 267 281 289 265 55 123 338 150 96 120 198 151 253 210 164 184 188 164 182 187 170
201 202 204 205 204 206 210 221 240 295 325 255 271 19 349 300 310 305 256 265 274 287 306 241 225 257 287 283 82 6 7 18 181 107 130 36 255 207 274 270 230 213 192 191 198 193 247
198 200 201 203 204 206 206 211 220 238 308 272 316 347 4 290 309 319 256 255 262 278 296 233 308 323 236 243 79 339 283 275 258 206 188 152 148 83 246 230 255 275 209 202 198 196 198
196 197 199 201 202 203 202 207 214 212 226 334 301 326 320 272 274 287 324 322 347 298 264 290 62 355 351 317 110 12 322 295 269 258 168 161 152 126 203 48 228 244 229 209 233 221 210
193 193 196 199 201 200 200 204 210 213 222 244 304 358 318 283 290 292 310 339 334 325 298 296 187 196 334 302 63 39 328 344 292 269 198 154 137 124 143 198 275 300 252 173 169 256 250
189 190 193 195 198 198 198 199 203 206 210 230 281 295 261 317 240 353 332 332 8 324 304 319 30 351 49 19 89 149 212 213 233 227 223 185 140 139 139 159 210 231 246 217 120 265 160
187 189 190 191 194 196 196 196 200 203 204 207 265 303 259 263 278 337 356 327 342 338 301 358 349 325 27 67 24 155 216 185 224 191 189 148 127 158 155 193 273 262 162 105 120 232 131
183 185 187 188 190 192 194 194 195 200 201 190 262 259 180 278 290 284 311 328 328 355 333 353 335 305 31 116 205 273 205 238 161 236 193 159 160 180 122 109 259 212 112 150 209 113 136
178 183 184 185 186 189 192 191 192 197 196 190 263 273 270 176 256 309 266 254 265 281 305 66 283 337 327 265 200 204 268 283 181 214 191 215 169 182 170 205 231 240 193 171 143 126 117